CW9809 Weather Reports


Display with metric or nautical units.
time (UTC)temp
F
wind
direction
speed
MPH
gust
MPH
rain 1hr
in
rain 24hr
in
rain mn
in
humidity
%
barometer
mb
20260505183037 79 215 3.0 11.0 0.00 0.00 0.00 46 1009.2
20260505181520 79 206 4.0 10.0 0.00 0.00 0.00 46 1009.3
20260505180023 78 198 2.0 10.0 0.00 0.00 0.00 48 1009.3
20260505174529 80 193 0.0 10.0 0.00 0.00 0.00 48 1009.4
20260505173020 79 237 0.0 10.0 0.00 0.00 0.00 45 1009.5
20260505171518 78 215 1.0 11.0 0.00 0.00 0.00 48 1009.6
20260505170019 78 242 0.0 8.0 0.00 0.00 0.00 47 1009.8
20260505164526 77 207 0.0 8.0 0.00 0.00 0.00 48 1010.2
20260505163027 77 187 0.0 14.0 0.00 0.00 0.00 48 1010.4
20260505161512 78 236 0.0 12.0 0.00 0.00 0.00 48 1010.4
20260505153028 74 156 0.0 6.0 0.00 0.00 0.00 51 1011.0
20260505151529 74 225 0.0 6.0 0.00 0.00 0.00 54 1011.2
20260505124530 60 229 0.0 1.0 0.00 0.00 0.00 73 1011.3
20260505123016 59 226 0.0 4.0 0.00 0.00 0.00 74 1011.5
20260505121503 57 203 0.0 0.0 0.00 0.00 0.00 81 1011.6
20260505120007 56 202 0.0 0.0 0.00 0.00 0.00 81 1011.4
20260505114510 55 211 0.0 0.0 0.00 0.00 0.00 83 1011.5
20260505113014 53 211 0.0 0.0 0.00 0.00 0.00 85 1011.4
20260505111516 53 211 0.0 0.0 0.00 0.00 0.00 86 1011.3
20260505101525 51 215 0.0 0.0 0.00 0.00 0.00 87 1010.7
20260505100022 51 219 0.0 0.0 0.00 0.00 0.00 86 1010.6
20260505094528 51 219 0.0 0.0 0.00 0.00 0.00 86 1010.4
20260505093010 51 219 0.0 0.0 0.00 0.00 0.00 85 1010.4
20260505091512 51 219 0.0 0.0 0.00 0.00 0.00 85 1010.3
20260505090021 50 219 0.0 0.0 0.00 0.00 0.00 84 1010.3
20260505084534 50 219 0.0 0.0 0.00 0.00 0.00 83 1010.4
20260505083022 51 219 0.0 0.0 0.00 0.00 0.00 82 1010.4
20260505081512 51 219 0.0 0.0 0.00 0.00 0.00 82 1010.5
20260505080015 51 219 0.0 0.0 0.00 0.00 0.00 80 1010.5
20260505074520 52 219 0.0 0.0 0.00 0.00 0.00 79 1010.6
20260505073034 52 219 0.0 0.0 0.00 0.00 0.00 78 1010.4
20260505071524 53 219 0.0 0.0 0.00 0.00 0.00 77 1010.4
20260505070019 54 198 0.0 0.0 0.00 0.00 0.00 75 1010.5
20260505064516 55 198 0.0 0.0 0.00 0.00 0.00 72 1010.7
20260505063023 56 202 0.0 0.0 0.00 0.00 0.00 69 1010.6
20260505061535 57 226 0.0 0.0 0.00 0.00 0.00 67 1010.6
20260505060029 58 200 0.0 0.0 0.00 0.00 0.00 66 1010.8
20260505054534 58 222 0.0 3.0 0.00 0.00 0.00 65 1010.8
20260505053020 57 209 0.0 7.0 0.00 0.00 0.00 65 1011.0
20260505051525 57 222 0.0 4.0 0.00 0.00 0.00 67 1011.0
20260505041531 56 178 0.0 0.0 0.00 0.00 0.00 68 1011.4
20260505040036 56 167 0.0 0.0 0.00 0.00 0.00 67 1011.3
20260505034531 56 156 0.0 0.0 0.00 0.00 0.00 68 1011.4
20260505033010 56 199 0.0 0.0 0.00 0.00 0.00 68 1011.4
20260505031532 56 202 0.0 0.0 0.00 0.00 0.00 69 1011.4
20260505030022 56 193 0.0 0.0 0.00 0.00 0.00 68 1011.4
20260505024533 56 198 0.0 5.0 0.00 0.00 0.00 69 1011.3
20260505023028 56 202 0.0 0.0 0.00 0.00 0.00 69 1011.4
20260505021516 55 176 0.0 0.0 0.00 0.00 0.00 69 1011.5
20260505020020 55 211 0.0 0.0 0.00 0.00 0.00 69 1011.5
20260505014531 56 323 0.0 0.0 0.00 0.00 0.00 68 1011.5
20260505013026 56 228 0.0 0.0 0.00 0.00 0.00 66 1011.4
20260505011528 57 228 0.0 5.0 0.00 0.00 0.00 65 1011.2
20260505010023 57 223 0.0 1.0 0.00 0.00 0.00 63 1011.0
20260505004520 58 210 0.0 1.0 0.00 0.00 0.00 61 1010.6
20260505003024 58 234 0.0 0.0 0.00 0.00 0.00 59 1010.5
20260505001529 59 234 0.0 4.0 0.00 0.00 0.00 58 1010.3
20260505000038 60 233 0.0 0.0 0.00 0.00 0.00 57 1010.1
20260504234515 61 201 0.0 6.0 0.00 0.00 0.00 55 1009.8
20260504233018 61 292 0.0 7.0 0.00 0.00 0.00 54 1009.6
20260504231523 62 117 0.0 7.0 0.00 0.00 0.00 52 1009.4
20260504230028 63 146 0.0 9.0 0.00 0.00 0.00 51 1009.2
20260504224531 63 264 0.0 9.0 0.00 0.00 0.00 50 1009.2
20260504223044 64 219 1.0 10.0 0.00 0.00 0.00 49 1009.2
20260504221520 65 196 3.0 11.0 0.00 0.00 0.00 47 1009.2
20260504220026 66 178 2.0 9.0 0.00 0.00 0.00 46 1009.3
20260504214527 67 207 0.0 8.0 0.00 0.00 0.00 45 1009.3
20260504213042 70 194 0.0 11.0 0.00 0.00 0.00 37 1009.2
20260504211534 72 327 0.0 7.0 0.00 0.00 0.00 32 1009.2
20260504210022 71 203 0.0 15.0 0.00 0.00 0.00 32 1009.2
20260504204510 72 241 1.0 9.0 0.00 0.00 0.00 33 1009.3
20260504203017 71 194 1.0 15.0 0.00 0.00 0.00 32 1009.3
20260504201527 71 200 1.0 16.0 0.00 0.00 0.00 32 1009.4
20260504200023 71 227 1.0 13.0 0.00 0.00 0.00 32 1009.5
20260504194524 72 209 2.0 12.0 0.00 0.00 0.00 32 1009.6
20260504193028 71 199 3.0 12.0 0.00 0.00 0.00 33 1009.6
20260504191511 71 244 0.0 10.0 0.00 0.00 0.00 32 1009.6
20260504190018 71 227 1.0 10.0 0.00 0.00 0.00 34 1009.6
20260504184522 71 69 3.0 14.0 0.00 0.00 0.00 32 1009.8